User: anonymous
Location: Albany
(35.0000°S, 118.0000°E)
Time: 16:00:58
(UTC-04:00)
Language:

ERS-1 Rocket - Orbit

View from above orbital plane
View from above orbital plane
View from above satellite
View from above satellite

Ground track
Ground track

The orbit data is extracted from the following two-line orbital elements,

1 21610U 91050F   14261.70887682  .00000321  00000-0  11586-3 0  5924
2 21610 098.7367 288.4121 0003936 067.8056 042.8444 14.40337222215777
Epoch (UTC): 18 September 2014 17:00:46
Eccentricity: 0.0003936
inclination: 98.7367°
perigee height: 754 km
apogee height: 760 km
right ascension of ascending node: 288.4121°
argument of perigee: 67.8056°
revolutions per day: 14.40337222
mean anomaly at epoch: 42.8444°
orbit number at epoch: 21577

The dashed part of the orbit path shows where the satellite is in the earth's shadow,  

DLR